Wind_Speed
99 97 96 97 96 94 95 84 88 97 98 97 97 98 98 98 96 91 91 89 89 87 86 82 79 79 80 81 82 79 80 80 78 78 79 81 81 81
101 97 98 100 102 101 98 93 101 101 100 103 103 98 96 100 96 92 89 86 87 87 84 82 82 81 81 83 84 87 88 86 85 86 83 85 83 83
109 105 102 97 105 98 97 102 105 104 103 101 104 99 96 90 96 92 91 87 86 86 87 87 87 86 88 90 91 92 89 88 90 89 90 89 90 89
108 106 105 105 105 104 105 106 105 103 98 100 104 97 91 90 91 89 89 89 91 93 93 95 94 93 92 91 88 88 89 91 93 93 95 96 96 97
107 107 106 104 104 104 101 96 92 90 90 94 93 89 85 85 88 89 92 95 97 96 93 89 89 89 90 91 92 94 94 94 95 98 101 106 106 106
98 95 93 92 89 90 90 91 93 93 93 92 91 87 87 87 90 91 92 90 86 86 85 88 91 92 94 95 96 94 98 102 106 111 113 111 109 108
88 82 81 80 80 83 83 85 86 83 80 82 85 90 95 96 91 87 81 83 88 90 90 97 96 97 99 99 102 104 106 108 107 106 101 99 97 96
77 71 64 66 69 74 76 76 77 75 80 87 91 93 97 87 79 82 85 87 92 94 91 98 98 106 106 108 106 102 97 95 95 92 88 83 81 84
59 57 56 63 64 64 69 73 71 71 72 76 76 76 77 79 82 86 88 90 94 95 95 104 110 110 110 104 95 90 86 84 84 78 73 69 70 72
39 45 51 56 58 59 56 55 58 61 66 70 73 78 80 82 85 88 91 94 99 102 100 106 108 103 95 89 82 76 76 76 73 71 69 66 64 63
16 22 28 35 41 48 54 59 63 67 72 76 80 83 86 89 91 94 96 99 103 107 104 104 97 90 84 74 67 65 69 69 67 64 63 60 58 57
27 32 37 43 48 54 60 65 71 76 80 84 86 89 92 93 94 97 101 104 101 98 89 90 81 71 72 67 58 60 61 60 57 54 55 52 51 54
37 41 46 51 55 60 66 72 78 83 87 89 91 93 94 96 100 101 98 89 82 80 73 70 68 65 63 64 60 54 52 54 52 52 51 50 47 46
42 46 50 55 60 65 70 76 82 87 89 91 95 99 101 101 94 81 76 73 67 63 62 59 61 59 58 57 52 51 47 48 49 46 46 44 43 41
45 49 53 57 63 69 75 81 87 91 94 97 99 98 88 77 74 71 65 59 54 53 56 56 53 50 48 48 48 45 47 41 45 43 41 40 38 37
48 51 55 61 67 74 79 86 91 92 94 91 84 77 68 66 63 58 54 51 48 48 47 45 44 44 43 42 44 44 41 41 35 36 36 37 33 34
53 58 63 68 75 79 85 89 87 84 80 76 68 63 60 54 50 49 47 47 46 43 37 34 37 38 38 39 38 36 39 35 35 32 27 28 32 27
62 67 71 76 81 85 82 78 75 76 71 65 61 56 49 46 43 42 43 43 39 37 37 34 32 31 32 32 36 38 28 31 34 32 31 29 28 30
70 74 79 83 81 73 72 70 70 65 61 58 53 48 43 40 41 41 39 36 34 32 33 33 32 32 30 25 25 32 31 27 27 27 26 25 23 28
76 80 84 78 70 69 68 65 62 58 54 50 46 42 38 38 39 37 35 32 30 28 29 29 29 28 29 30 28 25 27 29 28 26 25 25 25 24
79 83 77 70 70 68 63 59 56 52 50 44 41 37 35 37 36 33 30 29 27 25 25 25 25 26 27 25 25 24 25 24 24 24 22 22 18 20
81 76 70 69 68 67 59 54 52 51 45 41 36 33 34 35 33 29 27 25 24 23 22 23 22 21 22 22 23 20 19 19 21 25 27 28 28 30
77 68 68 68 66 62 55 51 50 46 41 38 31 31 35 33 31 27 24 22 22 20 20 20 19 20 21 18 16 17 20 22 24 24 23 25 26 26
Wind_Direction
277 279 280 278 282 282 285 281 282 289 288 288 289 291 293 290 289 288 289 287 287 287 287 285 287 287 285 283 284 282 282 280 278 278 275 274 272 270
276 275 275 277 279 280 282 277 281 284 286 288 288 288 286 289 289 289 287 287 288 287 287 287 285 284 284 285 285 285 284 282 278 279 276 275 273 270
273 273 272 272 274 277 278 279 281 284 286 288 289 288 288 285 283 285 285 286 286 287 286 287 287 287 287 286 283 285 285 283 283 281 281 279 274 271
272 272 272 273 277 279 278 279 280 283 284 283 284 287 286 285 283 283 284 286 288 289 288 286 287 286 285 285 286 286 285 283 282 280 279 278 275 273
266 268 270 272 273 274 276 277 280 281 282 284 283 284 282 278 282 283 282 286 289 288 290 289 288 288 288 288 288 286 285 285 287 287 285 281 278 274
264 267 269 270 272 273 273 275 276 278 278 279 277 276 279 281 286 285 286 290 290 288 290 291 290 290 289 289 289 292 292 291 288 285 282 279 276 274
261 264 267 269 270 271 273 274 277 278 276 274 275 277 282 287 290 289 288 288 291 291 292 291 291 291 292 293 293 291 289 287 285 282 281 280 278 275
259 260 265 269 269 272 273 273 275 276 275 272 276 279 284 287 286 288 290 291 290 291 292 292 294 292 294 293 292 291 290 288 286 283 279 279 278 276
259 261 262 262 267 270 276 278 282 286 285 283 284 283 286 289 290 291 292 291 290 292 295 295 295 295 295 293 293 293 293 290 285 286 287 283 277 275
257 258 263 269 276 280 284 285 283 285 286 287 288 289 290 291 291 290 291 293 295 296 297 296 295 295 294 294 296 295 292 290 293 290 288 285 282 278
285 283 285 285 286 288 289 291 292 291 291 291 292 292 293 293 293 295 297 298 298 299 300 296 294 296 296 296 296 295 293 293 292 294 293 293 291 286
303 297 294 293 294 294 293 293 294 293 293 292 292 292 293 295 298 298 300 300 300 297 295 295 296 297 296 297 296 296 294 294 296 296 296 296 292 289
303 301 298 295 293 295 294 291 290 290 290 291 292 295 298 300 301 300 299 296 296 296 296 296 298 300 298 297 299 299 299 297 298 297 296 296 295 291
296 294 293 292 292 291 290 290 289 290 292 297 300 301 301 300 300 299 297 297 297 298 297 297 297 297 296 297 300 300 299 299 298 297 295 294 293 293
299 297 295 293 293 293 293 293 296 298 300 300 300 300 301 301 300 299 299 299 299 297 297 297 296 295 296 299 301 303 301 298 297 298 295 293 292 291
303 302 301 299 297 297 298 299 300 301 300 301 302 304 302 301 300 299 300 300 298 298 297 297 297 298 302 303 303 302 301 301 297 295 296 296 295 294
305 304 303 302 302 303 303 304 305 303 303 305 306 305 304 302 301 299 300 300 302 300 297 294 296 298 299 302 301 300 305 308 306 306 305 302 300 296
308 307 307 307 308 309 308 309 309 307 308 308 307 306 305 303 300 300 303 304 304 302 301 301 298 300 303 307 306 303 308 304 306 309 311 312 307 303
311 311 312 313 315 313 312 314 311 310 309 308 308 306 305 302 303 307 307 306 303 300 301 304 307 308 308 304 303 305 310 310 310 309 309 308 305 303
312 313 316 318 317 315 318 316 311 311 310 309 307 306 304 304 308 309 307 302 298 300 303 308 311 312 315 314 317 315 318 318 318 313 310 309 304 298
314 318 319 319 319 320 322 316 314 313 312 308 306 304 303 307 310 308 305 299 301 304 309 312 314 314 312 315 322 322 326 327 327 327 327 324 325 324
318 320 320 320 321 324 322 317 316 314 311 309 306 302 307 313 313 309 302 300 304 308 310 316 312 311 312 314 314 319 336 340 340 339 331 330 331 328
319 319 321 323 324 326 322 319 316 313 309 307 304 306 311 314 311 307 300 300 303 308 315 310 313 313 315 325 339 345 350 353 346 344 334 326 324 325
Height
10571 10570 10564 10557 10558 10555 10553 10551 10533 10536 10531 10529 10523 10515 10507 10501 10497 10493 10488 10485 10480 10475 10471 10469 10469 10467 10465 10463 10461 10460 10459 10458 10456 10455 10453 10451 10450 10449
10551 10552 10547 10539 10535 10534 10533 10529 10524 10516 10510 10505 10499 10497 10488 10477 10473 10470 10467 10463 10459 10454 10450 10450 10447 10445 10442 10439 10435 10433 10431 10429 10426 10424 10423 10421 10421 10420
10525 10526 10523 10523 10511 10516 10513 10506 10501 10495 10489 10484 10472 10470 10467 10459 10452 10447 10443 10441 10437 10431 10426 10425 10423 10421 10416 10412 10408 10406 10402 10398 10395 10392 10389 10388 10385 10383
10497 10498 10497 10497 10496 10494 10490 10484 10481 10475 10470 10460 10453 10449 10443 10436 10430 10424 10420 10417 10412 10406 10403 10400 10396 10392 10388 10385 10382 10378 10373 10369 10365 10359 10353 10349 10345 10344
10472 10474 10476 10478 10476 10472 10467 10462 10459 10456 10449 10440 10433 10428 10423 10415 10411 10406 10401 10395 10389 10379 10376 10372 10367 10363 10358 10354 10349 10344 10340 10335 10329 10320 10313 10307 10301 10299
10447 10454 10457 10457 10455 10451 10446 10442 10438 10435 10430 10424 10416 10409 10403 10397 10393 10386 10380 10373 10365 10354 10352 10345 10337 10333 10325 10320 10315 10312 10306 10297 10289 10279 10269 10261 10256 10253
10430 10435 10435 10436 10434 10430 10427 10422 10418 10414 10409 10403 10395 10388 10382 10377 10372 10363 10356 10350 10338 10328 10328 10314 10310 10301 10292 10288 10285 10279 10271 10261 10248 10235 10227 10220 10215 10211
10414 10419 10421 10420 10415 10414 10409 10404 10400 10396 10390 10383 10376 10371 10364 10358 10349 10341 10334 10328 10317 10302 10303 10286 10280 10265 10260 10253 10248 10241 10231 10219 10206 10199 10192 10189 10182 10172
10400 10403 10405 10403 10400 10397 10393 10388 10384 10379 10373 10367 10360 10352 10345 10336 10328 10318 10310 10302 10287 10279 10280 10263 10242 10234 10226 10215 10211 10206 10196 10181 10168 10165 10163 10157 10152 10146
10388 10391 10392 10391 10388 10384 10379 10372 10367 10361 10355 10349 10341 10332 10323 10315 10306 10295 10285 10275 10262 10252 10251 10236 10211 10204 10195 10188 10185 10175 10162 10151 10146 10138 10132 10129 10124 10118
10382 10382 10381 10379 10376 10371 10364 10356 10349 10342 10335 10327 10319 10310 10300 10291 10281 10270 10260 10250 10237 10219 10214 10197 10182 10180 10165 10162 10161 10152 10138 10131 10125 10119 10108 10102 10097 10092
10376 10374 10371 10368 10363 10356 10348 10340 10331 10322 10313 10304 10295 10285 10274 10265 10256 10245 10233 10217 10207 10193 10187 10169 10160 10160 10145 10135 10140 10132 10121 10111 10105 10099 10091 10085 10079 10070
10367 10364 10359 10354 10348 10342 10333 10323 10312 10301 10290 10281 10272 10261 10251 10241 10228 10216 10205 10192 10181 10171 10163 10150 10140 10134 10129 10119 10115 10111 10103 10094 10088 10081 10076 10068 10062 10056
10358 10354 10348 10342 10334 10325 10315 10303 10290 10278 10268 10258 10246 10234 10222 10212 10199 10187 10179 10169 10161 10150 10141 10135 10127 10122 10111 10103 10101 10095 10090 10081 10074 10070 10063 10057 10050 10044
10346 10341 10334 10326 10316 10305 10294 10281 10268 10256 10244 10231 10219 10207 10195 10184 10172 10163 10156 10149 10144 10137 10127 10119 10112 10107 10101 10094 10084 10081 10072 10073 10063 10058 10052 10046 10041 10035
10333 10326 10318 10308 10298 10287 10275 10260 10246 10233 10217 10204 10193 10183 10173 10164 10153 10143 10138 10133 10129 10124 10114 10106 10099 10093 10088 10083 10075 10069 10066 10058 10056 10049 10044 10036 10033 10027
10321 10312 10302 10292 10279 10267 10253 10237 10222 10205 10192 10181 10170 10162 10154 10145 10139 10130 10125 10120 10114 10107 10104 10099 10091 10085 10080 10074 10069 10063 10054 10050 10043 10039 10036 10030 10022 10018
10303 10293 10282 10271 10258 10244 10228 10212 10198 10182 10171 10161 10152 10144 10138 10131 10125 10120 10114 10107 10101 10095 10089 10086 10083 10079 10073 10068 10058 10051 10052 10043 10036 10031 10026 10022 10015 10008
10285 10274 10261 10249 10235 10220 10207 10194 10179 10166 10155 10145 10137 10129 10123 10118 10112 10107 10101 10096 10090 10086 10081 10076 10072 10067 10063 10061 10055 10046 10041 10037 10031 10026 10021 10017 10012 10004
10266 10254 10242 10228 10215 10201 10189 10175 10162 10152 10142 10132 10125 10119 10113 10108 10102 10097 10091 10086 10083 10079 10074 10070 10065 10060 10055 10049 10046 10042 10035 10029 10025 10020 10016 10010 10005 10000
10248 10236 10223 10210 10197 10185 10173 10158 10147 10137 10129 10121 10115 10109 10105 10099 10094 10088 10083 10078 10075 10072 10068 10064 10059 10054 10049 10045 10040 10035 10030 10024 10018 10014 10008 10003 9999 9995
10230 10218 10206 10194 10181 10169 10156 10144 10134 10124 10117 10110 10105 10100 10095 10089 10084 10080 10076 10072 10069 10066 10062 10057 10053 10049 10045 10041 10036 10031 10027 10022 10016 10010 10005 9999 9992 9986
10214 10202 10191 10179 10166 10154 10142 10132 10122 10114 10106 10101 10097 10092 10086 10081 10077 10072 10069 10066 10063 10060 10057 10054 10050 10045 10041 10037 10032 10027 10022 10017 10012 10009 10004 9998 9991 9985